sat.trackr.live / text

‹ back to catalog

STARLINK-5985

NORAD 56451 · 2023-064D

PAYLOAD ACTIVE UNKNOWN

§ Identity

Operator
Country
US
Launch date
2023-05-10
Launch site
AFWTR
Launch vehicle
Mass (kg)
RCS (m²)

Purposes: comms

External: N2YO · Heavens-Above · Gunter

§ Orbital elements

Epoch: 2026-05-24T20:59:53.780064Z

Period
96.11 min
Inclination
69.9987°
Eccentricity
0.0003071
Mean motion
14.98341236 rev/d
Perigee alt
569.9 km
Apogee alt
574.2 km
Semi-major
6,950.2 km
B*
7.0970e-5
RAAN
312.5344°
Arg perigee
266.1758°
Mean anomaly
93.9050°
Rev number
16,665

§ Raw data

STARLINK-59851 56451U 23064D   26144.87492801  .00000754  00000+0  70970-4 0  99942 56451  69.9987 312.5344 0003071 266.1758  93.9050 14.98341236166650

JSON: /api/v1/satellites/56451 · /tle

For live sub-satellite position, see the globe view (requires WebGL).

§ Visibility from observer

Set your observer location to see the next 7 days of passes ≥ 10°. The values pass through the URL so the page stays shareable.

No JS? Fill the form by hand. The geolocation button needs JavaScript.